Location: Cisewo
(53.3833°N, 14.9000°E)
Time: 11:48:02
(UTC+00:00)

SPOT 3 Rocket - Pass Details

Date: 18 April 2021
Orbit: 778 x 795 km, 98.7° (Epoch: 14 May)

Event Time Altitude Azimuth Distance (km) Brightness Sun altitude
Exits shadow 20:03:45 - 186° (S) 2,461 5.8 -15.4°
Reaches altitude 10° 20:04:02 10° 188° (S) 2,352 5.7 -15.5°
Maximum altitude 20:09:01 46° 261° (W) 1,055 4.4 -16.0°
Drops below altitude 10° 20:14:01 10° 335° (NNW) 2,358 7.2 -16.5°
Sets 20:16:27 0° 341° (NNW) 3,288 8.0 -16.7°
